sat.trackr.live / text

‹ back to catalog

SHIJIAN-6 04B (SJ-6 04B)

NORAD 37180 · 2010-051B

PAYLOAD ACTIVE UNKNOWN

§ Identity

Operator
Country
PRC
Launch date
2010-10-06
Launch site
TAISC
Launch vehicle
Mass (kg)
RCS (m²)
2.45

External: N2YO · Heavens-Above · Gunter

§ Orbital elements

Epoch: 2026-05-25T04:45:08.228160Z

Period
96.05 min
Inclination
97.8698°
Eccentricity
0.0010982
Mean motion
14.99262042 rev/d
Perigee alt
561.5 km
Apogee alt
576.8 km
Semi-major
6,947.3 km
B*
3.6190e-5
RAAN
150.3763°
Arg perigee
25.8229°
Mean anomaly
334.3540°
Rev number
85,223

§ Raw data

SHIJIAN-6 04B (SJ-6 04B)1 37180U 10051B   26145.19801190  .00000380  00000+0  36190-4 0  99962 37180  97.8698 150.3763 0010982  25.8229 334.3540 14.99262042852232

JSON: /api/v1/satellites/37180 · /tle

For live sub-satellite position, see the globe view (requires WebGL).

§ Visibility from observer

Set your observer location to see the next 7 days of passes ≥ 10°. The values pass through the URL so the page stays shareable.

No JS? Fill the form by hand. The geolocation button needs JavaScript.

§ Radio — SatNOGS DB

ModeDescriptionDownlinkUplink
FM S-band telemetry 2.236 GHz

1 transmitter · refreshed weekly from db.satnogs.org